ATLAS 5 CENTAUR DEB, 43959

Orbit data source: Space-Track

ATLAS 5 CENTAUR DEB, 43959 is space debris in HEO originally from a launch on Wed, 17 Sep 2014 UTC launched from the Air Force Eastern Test Range (AFETR). Debris objects in space refer to the collection of defunct objects orbiting the Earth. Examples of debris include non-operational satellites, rocket bodies, and fragments generated from explosions, collisions, or faulty payload assembly.

Loading next visibility...
Identifier
43959, 2014-055N
Orbit
HEO
Country
Flag of USUS
Related business
Flag of USUnited Launch Alliance/Lockheed Martin (US)
Manufacturer
Unknown
Mission
Spacecraft
Bus & Motor
Unknown
Mass
Unknown
Launch date (UTC)
2014-09-17 (12 years ago)
Launch vehicle
Unknown
Launch site
Air Force Eastern Test Range (AFETR)
Object type
Payload
Rocket body
Debris
Shape & HBR
Unknown shape, 1.1 m
Radar Cross Section
Large (>1 m²)

Expand to show TLE details & history
Last TLE update: 4 days ago

TLE from 4 days ago
0 ATLAS 5 CENTAUR DEB
1 43959U 14055N   26169.74054536 -.00000067  00000-0  00000-0 0  9997
2 43959  20.0713 137.1531 5019928 173.8614 196.0090  1.81434089 51694
Epoch: 2026-06-18T17:46Z
TLE epoch observation values (Epoch: 2026-06-18T17:46:23.119Z)
Latitude
Longitude
-36.45934°
Altitude
36,024.545 km
Speed
2.183 km/s
True Right ascension
09h 08m 27s
True Declination
0° 00' 00"
Sunlit
Object was in daylight at epoch
Visualization orbit readout
Latitude
Unknown
Longitude
Unknown
Altitude
Unknown
Speed
Unknown
Apparent Right ascension
Unknown
Apparent Declination
Unknown
Sunlit
N/A
Visualization observer readout
Local Sidereal Time
21:39:52
Azimuth
Unknown
Elevation
Unknown
Doppler factor
Unknown
Orbital elements
Apogee altitude
36,275.319 km
Perigee altitude
7,764.226 km
Semi-major axis
28,397.91 km
Eccentricity
0.50199
Inclination
20.0713°
RAAN
137.1531°
Arg. of periapsis
173.8614°
True anomaly
186.16114°
Mean anomaly
196.009°
Eccentric anomaly
190.67914°
Mean motion
0.45354 °/min
Orbital period
793.76 mins
BSTAR
0
Loading maneuver chart data...
Computing Atmospheric mass density...

Documentation

Showing up to 5 results
|